• In Romania
  • List of Countries
  • For 7 days
  • Water Temperature
  • Satellite Maps
  • Weather Map
  • Weather Widgets
  • user-avatar
    Login

    Hourly Weather Parakou

    Today, 23 October, Monday

    Time Temperature Precipitation Wind Pressure Humidity
    00:00 +27°C° 0 mm 2 mps 728 mmHg 63%
    01:00 +27°C° 0 mm 2 mps 727 mmHg 70%
    02:00 +26°C° 0 mm 2 mps 727 mmHg 77%
    03:00 +25°C° 0 mm 2 mps 727 mmHg 84%
    04:00 +25°C° 0 mm 2 mps 727 mmHg 88%
    05:00 +25°C° 0 mm 2 mps 727 mmHg 92%
    06:00 +24°C° 0 mm 2 mps 727 mmHg 96%
    07:00 +27°C° 0 mm 2 mps 728 mmHg 85%
    08:00 +29°C° 0 mm 2 mps 728 mmHg 74%
    09:00 +31°C° 0 mm 2 mps 728 mmHg 64%
    10:00 +34°C° 0 mm 2 mps 728 mmHg 54%
    11:00 +36°C° 0 mm 1 mps 728 mmHg 44%
    12:00 +39°C° 0 mm 1 mps 727 mmHg 35%
    13:00 +36°C° 0 mm 0 mps 726 mmHg 33%
    14:00 +36°C° 0 mm 0 mps 726 mmHg 31%
    15:00 +36°C° 0 mm 0 mps 725 mmHg 29%
    16:00 +36°C° 0 mm 1 mps 725 mmHg 33%
    17:00 +34°C° 0 mm 1 mps 725 mmHg 36%
    18:00 +32°C° 0 mm 1 mps 725 mmHg 40%
    19:00 +31°C° 0 mm 1 mps 726 mmHg 42%
    20:00 +31°C° 0 mm 1 mps 726 mmHg 45%
    21:00 +30°C° 0 mm 1 mps 727 mmHg 47%
    22:00 +29°C° 0 mm 2 mps 727 mmHg 51%
    23:00 +29°C° 0 mm 2 mps 727 mmHg 55%

    Tomorrow, 24 October, Tuesday

    Time Temperature Precipitation Wind Pressure Humidity
    00:00 +28°C° 0 mm 2 mps 727 mmHg 59%
    01:00 +28°C° 0 mm 2 mps 727 mmHg 66%
    02:00 +27°C° 0 mm 2 mps 726 mmHg 72%
    03:00 +26°C° 0 mm 2 mps 726 mmHg 79%
    04:00 +26°C° 0 mm 2 mps 726 mmHg 83%
    05:00 +25°C° 0 mm 2 mps 727 mmHg 86%
    06:00 +25°C° 0 mm 2 mps 727 mmHg 89%
    07:00 +27°C° 0 mm 2 mps 727 mmHg 80%
    08:00 +29°C° 0 mm 2 mps 728 mmHg 71%
    09:00 +31°C° 0 mm 2 mps 728 mmHg 61%
    10:00 +35°C° 0 mm 2 mps 728 mmHg 52%
    11:00 +37°C° 0 mm 1 mps 727 mmHg 43%
    12:00 +40°C° 0 mm 1 mps 727 mmHg 35%
    13:00 +37°C° 0 mm 0 mps 726 mmHg 33%
    14:00 +36°C° 0 mm 0 mps 725 mmHg 31%
    15:00 +36°C° 0 mm 0 mps 724 mmHg 29%
    16:00 +36°C° 0 mm 1 mps 725 mmHg 33%
    17:00 +34°C° 0 mm 1 mps 725 mmHg 36%
    18:00 +32°C° 0 mm 1 mps 725 mmHg 40%
    19:00 +32°C° 0 mm 1 mps 725 mmHg 42%
    20:00 +31°C° 0 mm 1 mps 726 mmHg 44%
    21:00 +30°C° 0 mm 1 mps 727 mmHg 47%
    22:00 +30°C° 0 mm 2 mps 727 mmHg 52%
    23:00 +29°C° 0 mm 2 mps 727 mmHg 58%

    Day after tomorrow, 25 October, Wednesday

    Time Temperature Precipitation Wind Pressure Humidity
    00:00 +29°C° 0 mm 3 mps 727 mmHg 64%
    01:00 +28°C° 0.1 mm 3 mps 727 mmHg 71%
    02:00 +27°C° 0.1 mm 3 mps 726 mmHg 78%
    03:00 +26°C° 0.1 mm 3 mps 726 mmHg 85%
    04:00 +26°C° 0 mm 3 mps 726 mmHg 86%
    05:00 +26°C° 0 mm 3 mps 727 mmHg 88%
    06:00 +25°C° 0 mm 3 mps 727 mmHg 89%
    07:00 +27°C° 0 mm 3 mps 727 mmHg 80%
    08:00 +29°C° 0 mm 3 mps 728 mmHg 71%
    09:00 +31°C° 0 mm 3 mps 728 mmHg 62%
    10:00 +35°C° 0 mm 2 mps 728 mmHg 54%
    11:00 +36°C° 0 mm 1 mps 727 mmHg 45%
    12:00 +39°C° 0 mm 1 mps 727 mmHg 36%
    13:00 +39°C° 0 mm 1 mps 726 mmHg 32%
    14:00 +39°C° 0 mm 1 mps 725 mmHg 29%
    15:00 +39°C° 0 mm 1 mps 725 mmHg 26%
    16:00 +36°C° 0 mm 1 mps 725 mmHg 29%
    17:00 +34°C° 0 mm 1 mps 725 mmHg 33%
    18:00 +32°C° 0 mm 1 mps 725 mmHg 37%
    19:00 +32°C° 0 mm 1 mps 726 mmHg 40%
    20:00 +31°C° 0 mm 2 mps 727 mmHg 44%
    21:00 +30°C° 0 mm 2 mps 727 mmHg 47%
    22:00 +30°C° 0 mm 2 mps 727 mmHg 54%
    23:00 +29°C° 0 mm 3 mps 727 mmHg 62%

    26 October, Thursday

    Time Temperature Precipitation Wind Pressure Humidity
    00:00 +28°C° 0 mm 3 mps 728 mmHg 70%
    01:00 +27°C° 0.2 mm 3 mps 727 mmHg 76%
    02:00 +26°C° 0.2 mm 3 mps 727 mmHg 82%
    03:00 +26°C° 0.2 mm 2 mps 727 mmHg 88%
    04:00 +26°C° 0 mm 2 mps 727 mmHg 88%
    05:00 +25°C° 0 mm 2 mps 727 mmHg 89%
    06:00 +25°C° 0 mm 2 mps 728 mmHg 90%
    07:00 +27°C° 0 mm 2 mps 728 mmHg 80%
    08:00 +29°C° 0 mm 2 mps 729 mmHg 71%
    09:00 +31°C° 0 mm 2 mps 729 mmHg 61%
    10:00 +35°C° 0 mm 2 mps 729 mmHg 52%
    11:00 +36°C° 0 mm 1 mps 728 mmHg 43%
    12:00 +39°C° 0 mm 1 mps 727 mmHg 34%
    13:00 +39°C° 0 mm 1 mps 727 mmHg 32%
    14:00 +39°C° 0 mm 1 mps 726 mmHg 30%
    15:00 +38°C° 0 mm 2 mps 725 mmHg 28%
    16:00 +36°C° 0 mm 1 mps 726 mmHg 31%
    17:00 +34°C° 0 mm 1 mps 726 mmHg 34%
    18:00 +32°C° 0 mm 1 mps 726 mmHg 38%
    19:00 +31°C° 0 mm 1 mps 726 mmHg 40%
    20:00 +30°C° 0 mm 1 mps 727 mmHg 42%
    21:00 +29°C° 0 mm 1 mps 727 mmHg 44%
    22:00 +29°C° 0 mm 1 mps 727 mmHg 49%
    23:00 +28°C° 0 mm 1 mps 727 mmHg 53%

    27 October, Friday

    Time Temperature Precipitation Wind Pressure Humidity
    00:00 +27°C° 0 mm 1 mps 727 mmHg 57%
    01:00 +26°C° 0 mm 1 mps 726 mmHg 63%
    02:00 +26°C° 0 mm 1 mps 726 mmHg 70%
    03:00 +25°C° 0 mm 1 mps 726 mmHg 76%
    04:00 +25°C° 0 mm 1 mps 726 mmHg 81%
    05:00 +25°C° 0 mm 1 mps 727 mmHg 85%
    06:00 +22°C° 0 mm 0 mps 727 mmHg 90%
    07:00 +25°C° 0 mm 0 mps 728 mmHg 78%
    08:00 +28°C° 0 mm 0 mps 728 mmHg 67%
    09:00 +31°C° 0 mm 0 mps 729 mmHg 56%
    10:00 +35°C° 0 mm 1 mps 728 mmHg 46%
    11:00 +36°C° 0 mm 1 mps 727 mmHg 37%
    12:00 +39°C° 0 mm 2 mps 726 mmHg 27%
    13:00 +39°C° 0 mm 2 mps 726 mmHg 24%
    14:00 +39°C° 0 mm 2 mps 725 mmHg 21%
    15:00 +39°C° 0 mm 2 mps 724 mmHg 18%
    16:00 +37°C° 0 mm 2 mps 725 mmHg 21%
    17:00 +34°C° 0 mm 1 mps 725 mmHg 23%
    18:00 +31°C° 0 mm 1 mps 725 mmHg 26%
    19:00 +30°C° 0 mm 1 mps 725 mmHg 26%
    20:00 +29°C° 0 mm 1 mps 726 mmHg 27%
    21:00 +28°C° 0 mm 1 mps 726 mmHg 28%
    22:00 +28°C° 0 mm 1 mps 726 mmHg 31%
    23:00 +27°C° 0 mm 1 mps 726 mmHg 35%

    28 October, Saturday

    Time Temperature Precipitation Wind Pressure Humidity
    00:00 +26°C° 0 mm 1 mps 726 mmHg 38%
    01:00 +26°C° 0 mm 1 mps 726 mmHg 40%
    02:00 +25°C° 0 mm 1 mps 725 mmHg 42%
    03:00 +25°C° 0 mm 1 mps 725 mmHg 44%
    04:00 +25°C° 0 mm 1 mps 726 mmHg 49%
    05:00 +22°C° 0 mm 0 mps 726 mmHg 53%
    06:00 +22°C° 0 mm 0 mps 726 mmHg 58%
    07:00 +26°C° 0 mm 1 mps 727 mmHg 55%
    08:00 +29°C° 0 mm 1 mps 727 mmHg 53%
    09:00 +32°C° 0 mm 1 mps 727 mmHg 50%
    10:00 +34°C° 0 mm 1 mps 727 mmHg 42%
    11:00 +36°C° 0 mm 1 mps 726 mmHg 34%
    12:00 +39°C° 0 mm 1 mps 725 mmHg 26%
    13:00 +39°C° 0 mm 1 mps 725 mmHg 24%
    14:00 +39°C° 0 mm 1 mps 724 mmHg 23%
    15:00 +36°C° 0 mm 0 mps 724 mmHg 21%
    16:00 +34°C° 0 mm 0 mps 724 mmHg 25%
    17:00 +34°C° 0 mm 1 mps 724 mmHg 28%
    18:00 +31°C° 0 mm 1 mps 724 mmHg 32%
    19:00 +30°C° 0 mm 1 mps 725 mmHg 35%
    20:00 +30°C° 0 mm 1 mps 725 mmHg 39%
    21:00 +29°C° 0 mm 2 mps 726 mmHg 43%
    22:00 +28°C° 0 mm 2 mps 726 mmHg 50%
    23:00 +28°C° 0 mm 2 mps 725 mmHg 57%

    29 October, Sunday

    Time Temperature Precipitation Wind Pressure Humidity
    00:00 +27°C° 0 mm 2 mps 725 mmHg 65%
    01:00 +27°C° 0 mm 2 mps 725 mmHg 70%
    02:00 +26°C° 0 mm 2 mps 725 mmHg 75%
    03:00 +26°C° 0 mm 2 mps 725 mmHg 81%
    04:00 +26°C° 0 mm 2 mps 725 mmHg 83%
    05:00 +25°C° 0 mm 2 mps 726 mmHg 86%
    06:00 +25°C° 0 mm 1 mps 726 mmHg 88%
    07:00 +27°C° 0 mm 2 mps 726 mmHg 79%
    08:00 +29°C° 0 mm 2 mps 727 mmHg 71%
    09:00 +31°C° 0 mm 2 mps 727 mmHg 62%
    10:00 +34°C° 0 mm 2 mps 726 mmHg 53%
    11:00 +36°C° 0 mm 1 mps 726 mmHg 43%
    12:00 +39°C° 0 mm 1 mps 725 mmHg 34%
    13:00 +39°C° 0 mm 1 mps 725 mmHg 32%
    14:00 +36°C° 0 mm 0 mps 724 mmHg 30%
    15:00 +36°C° 0 mm 0 mps 724 mmHg 28%
    16:00 +34°C° 0 mm 0 mps 724 mmHg 31%
    17:00 +32°C° 0 mm 0 mps 724 mmHg 34%
    18:00 +30°C° 0 mm 0 mps 724 mmHg 38%
    19:00 +31°C° 0 mm 1 mps 724 mmHg 39%
    20:00 +31°C° 0 mm 1 mps 725 mmHg 41%
    21:00 +30°C° 0 mm 1 mps 725 mmHg 43%
    22:00 +30°C° 0 mm 1 mps 725 mmHg 45%
    23:00 +29°C° 0 mm 1 mps 725 mmHg 48%
    Show more